User: anonymous   Login
Location: Braden Valley Church
(38.0012°N, 88.6106°W)
Time: 07:52:02
(UTC+00:00)
Language:

Cosmos 1833 Rocket - Orbit

View from above orbital plane
View from above orbital plane
View from above satellite
View from above satellite

Ground track
Ground track

The orbit data is extracted from the following two-line orbital elements,

1 17590U 87027B   22148.88112823  .00000031  00000-0  39513-4 0  9995
2 17590  71.0031 305.2663 0003136  52.3355 307.8053 14.16826913819787
Epoch (UTC): 28 May 2022 21:08:49
Eccentricity: 0.0003136
inclination: 71.0031°
perigee height: 834 km
apogee height: 838 km
right ascension of ascending node: 305.2663°
argument of perigee: 52.3355°
revolutions per day: 14.16826913
mean anomaly at epoch: 307.8053°
orbit number at epoch: 81978

The dashed part of the orbit path shows where the satellite is in the earth's shadow,  

DLR